Вернуться в каталог

DMSP 5D-2 F13 DEB

АктивенSSO
NORAD 40600·DEBRIS·🇺🇸 United States

Запущен Mar 24, 1995 с Vandenberg Space Force Base

Loading…

Ближайшие Пролёты (ближайшие 24 часа)

TLE

СвежийSource: Space-Track

Эпоха: Sep 12, 2026, 02:15 UTC

1 40600U 95015EX  26255.09426030  .00003851  00000-0  12888-2 0  9990
2 40600  98.8574 304.6372 0036556 129.8867 230.5542 14.37588357588366

Отслеживайте DMSP 5D-2 F13 DEB в реальном времени с AllMySat

Download on the App Store